Orbital Elements at Epoch 2459200.5 (2020-Dec-17.0) TDB
Reference: JPL 25 (heliocentric ecliptic J2000)
Element | Value | Uncertainty (1-sigma) | Units |
e | .1914391277077256 | 3.7347e-08 | |
a | 2.431101209029344 | 1.0595e-08 | au |
q | 1.965693314203569 | 9.0128e-08 | au |
i | 3.636887035648692 | 4.9544e-06 | deg |
node | 45.76122314559453 | 5.2817e-05 | deg |
peri | 299.1676535606462 | 5.4118e-05 | deg |
M | 79.00510493133088 | 1.2887e-05 | deg |
tp | 2458896.652519670640 (2020-Feb-17.15251967) | 4.8657e-05 | TDB |
period | 1384.531961746574 3.79 | 9.0512e-06 2.478e-08 | d yr |
n | .2600156659047896 | 1.6998e-09 | deg/d |
Q | 2.896509103855118 | 1.2624e-08 | au |
|
| | Orbit Determination Parameters
Additional Information
|